Weather History for KVOK - June, 2012

Change the Weather History Date:

Sunday, June 10, 2012

  Actual Average Record
Temperature  
Mean Temperature 72 °F -  
Max Temperature 88 °F 71 °F 88 °F (2012)
Min Temperature 56 °F 57 °F 37 °F (2002)
Cooling Degree Days 6    
Growing Degree Days 22 (Base 50)    
Moisture  
Dew Point 61 °F    
Average Humidity 64    
Maximum Humidity 100    
Minimum Humidity 37    
Precipitation  
Precipitation 0.00 in - - ()
Sea Level Pressure  
Sea Level Pressure 29.81 in    
Wind  
Wind Speed 8 mph (SSE)    
Max Wind Speed 18 mph    
Max Gust Speed 28 mph    
Visibility 10 miles    
Events      
Averages and records for this station are not official NWS values.
T = Trace of Precipitation, MM = Missing Value Source: NWS Daily Summary

Daily Weather History Graph

Daily Weather History Graph

Search for Another Location

Airport or City:

Trip Planner

Search our weather history database for the weather conditions in past years. The results will help you decide how hot, cold, wet, or windy it might be!

Date:

Astronomy

Jun. 10, 2012 Rise Set
Actual Time 5:18 AM CDT 8:43 PM CDT
Civil Twilight 4:42 AM CDT 9:19 PM CDT
Nautical Twilight 3:55 AM CDT 10:06 PM CDT
Astronomical Twilight 2:55 AM CDT 11:06 PM CDT
Moon 12:25 AM CDT (6/10) 12:18 PM CDT (6/10)
Length of Visible Light 16h 37m
Length of Day
15h 25m
Waning Gibbous, 58% of the Moon is Illuminated
Jun 10
Waning Gibbous
Jun 11
Last Quarter
Jun 19
New
Jun 26
First Quarter
Jul 3
Full

Hourly Weather History & Observations

Time (CDT) Temp. Heat Index Dew Point Humidity Pressure Visibility Wind Dir Wind Speed Gust Speed Precip Events Conditions
12:55 AM 60.6 °F - 58.1 °F 91% 29.81 in 10.0 mi SSE 3.5 mph - N/A   Clear
1:55 AM 58.8 °F - 58.5 °F 99% 29.80 in 10.0 mi South 5.8 mph - N/A   Clear
2:55 AM 59.0 °F - 58.6 °F 99% 29.80 in 10.0 mi South 4.6 mph - N/A   Clear
3:55 AM 57.2 °F - 57.2 °F 100% 29.80 in 10.0 mi SE 5.8 mph - N/A   Clear
4:55 AM 56.5 °F - 56.5 °F 100% 29.81 in 10.0 mi ESE 5.8 mph - N/A   Clear
5:55 AM 60.1 °F - 59.7 °F 99% 29.83 in 10.0 mi SSE 4.6 mph - N/A   Clear
6:55 AM 65.5 °F - 61.2 °F 86% 29.85 in 10.0 mi SSE 6.9 mph - N/A   Clear
7:55 AM 72.9 °F - 62.8 °F 71% 29.86 in 10.0 mi South 10.4 mph - N/A   Clear
8:55 AM 76.5 °F - 63.3 °F 64% 29.86 in 10.0 mi South 11.5 mph - N/A   Clear
9:55 AM 80.4 °F 82.1 °F 64.4 °F 58% 29.86 in 10.0 mi South 10.4 mph - N/A   Clear
10:55 AM 82.9 °F 84.6 °F 64.8 °F 54% 29.85 in 10.0 mi South 11.5 mph - N/A   Clear
11:55 AM 85.5 °F 86.3 °F 63.3 °F 47% 29.84 in 10.0 mi South 18.4 mph - N/A   Clear
12:55 PM 86.0 °F 86.6 °F 62.6 °F 45% 29.83 in 10.0 mi SSE 12.7 mph 21.9 mph N/A   Scattered Clouds
1:55 PM 87.8 °F 87.6 °F 60.8 °F 40% 29.82 in 10.0 mi South 15.0 mph 25.3 mph N/A   Scattered Clouds
2:55 PM 87.8 °F 87.6 °F 60.8 °F 40% 29.81 in 10.0 mi SSE 15.0 mph 27.6 mph N/A   Scattered Clouds
3:55 PM 86.0 °F 84.9 °F 57.2 °F 37% 29.80 in 10.0 mi South 16.1 mph 23.0 mph N/A   Scattered Clouds
4:55 PM 87.8 °F 87.1 °F 59.0 °F 38% 29.79 in 10.0 mi South 15.0 mph 24.2 mph N/A   Partly Cloudy
5:55 PM 86.0 °F 86.1 °F 60.8 °F 43% 29.77 in 10.0 mi SSE 15.0 mph 21.9 mph N/A   Partly Cloudy
6:55 PM 84.2 °F 85.0 °F 62.6 °F 48% 29.76 in 10.0 mi South 16.1 mph 23.0 mph N/A   Partly Cloudy
7:55 PM 82.4 °F 82.9 °F 60.8 °F 48% 29.75 in 10.0 mi SSE 10.4 mph 16.1 mph N/A   Partly Cloudy
8:55 PM 80.6 °F 81.5 °F 60.8 °F 51% 29.77 in 10.0 mi SSE 6.9 mph - N/A   Scattered Clouds
9:55 PM 77.0 °F - 61.2 °F 58% 29.78 in 10.0 mi SSE 6.9 mph - N/A   Clear
10:55 PM 75.2 °F - 62.2 °F 64% 29.78 in 10.0 mi SSE 5.8 mph - N/A   Clear
11:55 PM 74.5 °F - 62.2 °F 66% 29.76 in 10.0 mi SSE 6.9 mph - N/A   Clear